GW6587 Weather Reports


time (UTC)temp
C
wind
direction
speed
KPH
gust
KPH
rain 1hr
cm
rain 24hr
cm
rain mn
cm
humidity
%
barometer
mb
20260906214440 32 125 4.8 9.7 0.00 0.00 0.00 31 1017.8
20260906213939 32 153 3.2 9.7 0.00 0.00 0.00 30 1018.0
20260906213434 32 97 4.8 16.1 0.00 0.00 0.00 30 1018.0
20260906212932 32 121 4.8 9.7 0.00 0.00 0.00 30 1018.0
20260906212427 32 162 4.8 12.9 0.00 0.00 0.00 29 1018.2
20260906211927 32 144 6.4 16.1 0.00 0.00 0.00 30 1018.1
20260906211422 32 140 4.8 8.0 0.00 0.00 0.00 30 1018.2
20260906210916 32 146 6.4 12.9 0.00 0.00 0.00 30 1018.2
20260906210413 32 144 9.7 14.5 0.00 0.00 0.00 30 1018.6
20260906205907 32 126 4.8 14.5 0.00 0.00 0.00 31 1018.5
20260906205403 32 140 4.8 9.7 0.00 0.00 0.00 32 1018.5
20260906204858 32 132 3.2 9.7 0.00 0.00 0.00 31 1018.7
20260906204357 32 52 0.0 8.0 0.00 0.00 0.00 30 1018.7
20260906203857 32 165 4.8 11.3 0.00 0.00 0.00 29 1018.7
20260906203353 32 106 3.2 11.3 0.00 0.00 0.00 30 1018.8
20260906202850 32 188 4.8 11.3 0.00 0.00 0.00 31 1018.8
20260906202349 32 121 6.4 11.3 0.00 0.00 0.00 32 1019.0
20260906201849 32 158 12.9 12.9 0.00 0.00 0.00 30 1018.8
20260906201344 32 133 4.8 8.0 0.00 0.00 0.00 32 1019.0
20260906200840 32 69 3.2 9.7 0.00 0.00 0.00 32 1019.1
20260906200336 32 178 3.2 6.4 0.00 0.00 0.00 31 1019.2
20260906195835 32 141 4.8 9.7 0.00 0.00 0.00 30 1019.4
20260906195332 32 135 1.6 9.7 0.00 0.00 0.00 32 1019.2
20260906194828 32 152 3.2 6.4 0.00 0.00 0.00 32 1019.0
20260906194323 31 133 8.0 8.0 0.00 0.00 0.00 30 1019.2
20260906193818 31 117 3.2 11.3 0.00 0.00 0.00 31 1019.4
20260906193313 31 131 8.0 16.1 0.00 0.00 0.00 32 1019.6
20260906192804 31 173 3.2 11.3 0.00 0.00 0.00 32 1019.7
20260906192306 31 164 3.2 6.4 0.00 0.00 0.00 33 1019.7
20260906191802 31 48 1.6 6.4 0.00 0.00 0.00 32 1019.6
20260906191258 31 232 3.2 8.0 0.00 0.00 0.00 32 1019.9
20260906190757 30 120 3.2 8.0 0.00 0.00 0.00 35 1020.2
20260906190251 31 149 3.2 8.0 0.00 0.00 0.00 32 1020.0
20260906185751 30 157 1.6 6.4 0.00 0.00 0.00 34 1020.3
20260906185250 30 87 4.8 11.3 0.00 0.00 0.00 32 1020.3
20260906184745 30 156 4.8 9.7 0.00 0.00 0.00 33 1020.3
20260906184240 30 144 3.2 8.0 0.00 0.00 0.00 32 1020.3
20260906183735 30 156 3.2 4.8 0.00 0.00 0.00 34 1020.6
20260906183232 30 111 1.6 14.5 0.00 0.00 0.00 33 1020.6
20260906182731 30 124 6.4 6.4 0.00 0.00 0.00 34 1020.9
20260906182228 30 271 3.2 6.4 0.00 0.00 0.00 32 1020.7
20260906181722 30 114 0.0 6.4 0.00 0.00 0.00 32 1021.0
20260906181219 29 236 3.2 4.8 0.00 0.00 0.00 36 1021.1
20260906180719 29 356 3.2 6.4 0.00 0.00 0.00 37 1021.2
20260906180214 29 104 1.6 6.4 0.00 0.00 0.00 38 1021.3
20260906175712 28 159 3.2 4.8 0.00 0.00 0.00 36 1021.5
20260906175208 28 155 3.2 4.8 0.00 0.00 0.00 42 1021.6
20260906174706 28 19 0.0 4.8 0.00 0.00 0.00 39 1021.6
20260906174200 28 66 1.6 4.8 0.00 0.00 0.00 39 1021.7
20260906173656 27 29 4.8 4.8 0.00 0.00 0.00 40 1021.7
20260906173151 27 292 3.2 9.7 0.00 0.00 0.00 43 1021.6
20260906172650 26 320 1.6 11.3 0.00 0.00 0.00 45 1021.8
20260906172146 26 284 4.8 11.3 0.00 0.00 0.00 44 1021.8
20260906171646 26 148 3.2 4.8 0.00 0.00 0.00 44 1022.2
20260906171141 26 276 6.4 6.4 0.00 0.00 0.00 42 1022.2
20260906170637 26 297 6.4 6.4 0.00 0.00 0.00 42 1022.3
20260906170137 26 227 4.8 9.7 0.00 0.00 0.00 41 1022.3
20260906165633 26 326 6.4 11.3 0.00 0.00 0.00 45 1022.4
20260906165129 26 271 1.6 6.4 0.00 0.00 0.00 46 1022.3
20260906164627 26 293 3.2 9.7 0.00 0.00 0.00 47 1022.4
20260906164123 26 299 0.0 3.2 0.00 0.00 0.00 47 1022.3
20260906163619 25 14 3.2 6.4 0.00 0.00 0.00 47 1022.3
20260906163114 25 282 6.4 6.4 0.00 0.00 0.00 49 1022.4
20260906162611 25 159 0.0 4.8 0.00 0.00 0.00 51 1022.3
20260906162106 25 65 0.0 3.2 0.00 0.00 0.00 55 1022.4
20260906161601 24 261 0.0 6.4 0.00 0.00 0.00 54 1022.3
20260906161059 24 66 3.2 6.4 0.00 0.00 0.00 53 1022.3
20260906160558 23 261 0.0 4.8 0.00 0.00 0.00 58 1022.3
20260906160057 24 276 3.2 6.4 0.00 0.00 0.00 55 1022.4
20260906155555 24 292 1.6 6.4 0.00 0.00 0.00 56 1022.3
20260906155052 23 216 3.2 4.8 0.00 0.00 0.00 58 1022.5
20260906154547 23 110 3.2 3.2 0.00 0.00 0.00 62 1022.4
20260906154045 22 305 4.8 6.4 0.00 0.00 0.00 62 1022.4
20260906153544 22 218 3.2 8.0 0.00 0.00 0.00 64 1022.2
20260906153040 22 330 3.2 4.8 0.00 0.00 0.00 64 1022.3
20260906152539 22 276 3.2 6.4 0.00 0.00 0.00 65 1022.4
20260906152038 22 355 1.6 4.8 0.00 0.00 0.00 65 1022.4
20260906151534 21 234 3.2 6.4 0.00 0.00 0.00 66 1022.5
20260906151030 21 298 4.8 8.0 0.00 0.00 0.00 69 1022.5
20260906150525 21 288 4.8 6.4 0.00 0.00 0.00 68 1022.7
20260906150020 20 300 3.2 6.4 0.00 0.00 0.00 69 1022.4
20260906145519 20 290 3.2 6.4 0.00 0.00 0.00 71 1022.3
20260906145014 19 356 4.8 6.4 0.00 0.00 0.00 73 1022.3
20260906144508 19 287 3.2 6.4 0.00 0.00 0.00 73 1022.5
20260906144004 20 245 3.2 6.4 0.00 0.00 0.00 71 1022.3
20260906143459 20 294 6.4 6.4 0.00 0.00 0.00 70 1022.3
20260906142955 20 207 1.6 6.4 0.00 0.00 0.00 71 1022.5
20260906142454 19 207 6.4 6.4 0.00 0.00 0.00 72 1022.3
20260906141950 19 353 3.2 4.8 0.00 0.00 0.00 73 1022.5
20260906141449 18 327 1.6 8.0 0.00 0.00 0.00 73 1022.5
20260906140944 18 211 3.2 8.0 0.00 0.00 0.00 73 1022.5
20260906140439 18 350 3.2 6.4 0.00 0.00 0.00 73 1022.4
20260906135937 17 329 3.2 4.8 0.00 0.00 0.00 75 1022.4
20260906135436 17 326 4.8 9.7 0.00 0.00 0.00 76 1022.3
20260906134931 17 40 0.0 8.0 0.00 0.00 0.00 76 1022.3
20260906134427 17 252 4.8 9.7 0.00 0.00 0.00 76 1022.1
20260906133921 16 341 3.2 11.3 0.00 0.00 0.00 76 1022.1
20260906133417 16 211 0.0 4.8 0.00 0.00 0.00 77 1022.1
20260906132913 16 194 1.6 4.8 0.00 0.00 0.00 78 1021.8
20260906132408 16 116 0.0 4.8 0.00 0.00 0.00 78 1021.8
20260906131903 16 57 1.6 3.2 0.00 0.00 0.00 79 1022.1
20260906131359 16 282 0.0 3.2 0.00 0.00 0.00 79 1021.8
20260906130855 16 339 1.6 3.2 0.00 0.00 0.00 79 1021.8
20260906130354 16 331 0.0 4.8 0.00 0.00 0.00 79 1021.9
20260906125853 16 288 1.6 3.2 0.00 0.00 0.00 78 1022.1
20260906125350 16 242 0.0 3.2 0.00 0.00 0.00 78 1021.9
20260906124845 15 237 0.0 3.2 0.00 0.00 0.00 78 1021.7
20260906124341 15 86 0.0 3.2 0.00 0.00 0.00 78 1021.8
20260906123840 16 118 3.2 4.8 0.00 0.00 0.00 76 1021.8
20260906123335 16 285 0.0 4.8 0.00 0.00 0.00 76 1021.6
20260906122835 16 288 0.0 3.2 0.00 0.00 0.00 75 1021.7
20260906122330 16 250 0.0 4.8 0.00 0.00 0.00 75 1021.7
20260906121827 16 232 0.0 4.8 0.00 0.00 0.00 76 1021.7
20260906121322 16 300 1.6 4.8 0.00 0.00 0.00 74 1021.6
20260906120818 16 247 0.0 6.4 0.00 0.00 0.00 74 1021.5
20260906120314 16 336 0.0 4.8 0.00 0.00 0.00 74 1021.5
20260906115810 16 60 0.0 0.0 0.00 0.00 0.00 73 1021.7
20260906115306 16 82 0.0 1.6 0.00 0.00 0.00 72 1021.7
20260906114804 16 299 0.0 3.2 0.00 0.00 0.00 70 1021.7
20260906114300 16 239 1.6 3.2 0.00 0.00 0.00 70 1021.5
20260906113755 16 71 1.6 1.6 0.00 0.00 0.00 69 1021.7
20260906113254 16 110 0.0 1.6 0.00 0.00 0.00 69 1021.6
20260906112755 16 232 0.0 1.6 0.00 0.00 0.00 69 1021.5
20260906112251 16 308 0.0 3.2 0.00 0.00 0.00 69 1021.6
20260906111750 16 119 0.0 1.6 0.00 0.00 0.00 68 1021.5
20260906111249 16 348 0.0 1.6 0.00 0.00 0.00 68 1021.5
20260906110745 16 22 0.0 1.6 0.00 0.00 0.00 67 1021.5
20260906110241 16 322 0.0 1.6 0.00 0.00 0.00 67 1021.6
20260906105740 16 59 1.6 3.2 0.00 0.00 0.00 67 1021.3
20260906105236 16 333 0.0 3.2 0.00 0.00 0.00 67 1021.3
20260906104731 16 110 3.2 4.8 0.00 0.00 0.00 67 1021.5
20260906104230 16 124 3.2 4.8 0.00 0.00 0.00 68 1021.3
20260906103727 16 129 0.0 0.0 0.00 0.00 0.00 67 1021.2
20260906103222 17 80 0.0 3.2 0.00 0.00 0.00 66 1021.1
20260906102718 17 106 3.2 4.8 0.00 0.00 0.00 66 1021.1
20260906102217 17 106 3.2 3.2 0.00 0.00 0.00 66 1021.2
20260906101712 17 77 0.0 1.6 0.00 0.00 0.00 65 1021.2
20260906101207 17 44 0.0 0.0 0.00 0.00 0.00 65 1021.2
20260906100703 17 82 3.2 3.2 0.00 0.00 0.00 65 1021.1
20260906100202 17 113 0.0 1.6 0.00 0.00 0.00 65 1021.2
20260906095657 17 212 3.2 3.2 0.00 0.00 0.00 65 1021.1
20260906095153 17 55 0.0 0.0 0.00 0.00 0.00 65 1021.1
20260906094651 17 336 0.0 1.6 0.00 0.00 0.00 66 1021.0
20260906094147 17 82 0.0 1.6 0.00 0.00 0.00 66 1021.0
20260906093643 17 19 0.0 1.6 0.00 0.00 0.00 66 1021.2
20260906093144 17 100 3.2 3.2 0.00 0.00 0.00 65 1020.9
20260906092638 18 58 3.2 3.2 0.00 0.00 0.00 64 1021.2
20260906092132 18 126 0.0 3.2 0.00 0.00 0.00 63 1021.0
20260906091629 18 38 0.0 0.0 0.00 0.00 0.00 63 1021.0
20260906091125 18 89 0.0 1.6 0.00 0.00 0.00 62 1021.0
20260906090620 18 91 1.6 3.2 0.00 0.00 0.00 61 1021.0
20260906090120 18 60 1.6 3.2 0.00 0.00 0.00 61 1021.1
20260906085619 18 96 3.2 3.2 0.00 0.00 0.00 61 1020.9
20260906085114 18 115 3.2 3.2 0.00 0.00 0.00 61 1020.6
20260906084608 18 110 3.2 3.2 0.00 0.00 0.00 61 1021.1
20260906084107 18 112 1.6 3.2 0.00 0.00 0.00 61 1021.0
20260906083603 18 135 1.6 3.2 0.00 0.00 0.00 61 1020.9
20260906083103 19 98 1.6 3.2 0.00 0.00 0.00 60 1020.9
20260906082558 19 75 1.6 3.2 0.00 0.00 0.00 58 1021.2
20260906082054 19 88 3.2 3.2 0.00 0.00 0.00 58 1021.2
20260906081549 19 106 1.6 3.2 0.00 0.00 0.00 58 1021.2
20260906081045 19 202 0.0 3.2 0.00 0.00 0.00 58 1021.2
20260906080541 19 108 1.6 3.2 0.00 0.00 0.00 57 1021.2
20260906080038 20 39 0.0 1.6 0.00 0.00 0.00 56 1021.3
20260906075537 20 322 0.0 1.6 0.00 0.00 0.00 56 1021.1
20260906075032 20 230 0.0 3.2 0.00 0.00 0.00 55 1021.3
20260906074527 20 313 0.0 1.6 0.00 0.00 0.00 55 1021.2
20260906074025 20 57 0.0 3.2 0.00 0.00 0.00 54 1021.0
20260906073520 20 282 3.2 3.2 0.00 0.00 0.00 54 1021.2
20260906073016 20 129 0.0 3.2 0.00 0.00 0.00 54 1021.1
20260906072511 20 209 1.6 3.2 0.00 0.00 0.00 52 1020.6
20260906072007 21 191 0.0 3.2 0.00 0.00 0.00 52 1020.9
20260906071503 21 319 0.0 3.2 0.00 0.00 0.00 51 1020.7
20260906070958 21 158 0.0 3.2 0.00 0.00 0.00 50 1020.6
20260906070454 21 226 0.0 4.8 0.00 0.00 0.00 50 1020.6
20260906065950 21 203 1.6 3.2 0.00 0.00 0.00 49 1020.6
20260906065449 21 335 0.0 4.8 0.00 0.00 0.00 48 1020.6
20260906064945 22 252 3.2 4.8 0.00 0.00 0.00 47 1020.5
20260906064441 21 331 0.0 4.8 0.00 0.00 0.00 50 1020.6
20260906063935 21 212 0.0 1.6 0.00 0.00 0.00 53 1020.4
20260906063431 22 206 1.6 4.8 0.00 0.00 0.00 52 1020.3
20260906062926 22 243 0.0 1.6 0.00 0.00 0.00 50 1020.4
20260906062426 22 98 0.0 6.4 0.00 0.00 0.00 49 1020.3
20260906061921 22 288 3.2 3.2 0.00 0.00 0.00 49 1020.3
20260906061418 22 279 0.0 8.0 0.00 0.00 0.00 50 1020.5
20260906060918 21 52 0.0 6.4 0.00 0.00 0.00 50 1020.7
20260906060415 22 331 3.2 6.4 0.00 0.00 0.00 50 1021.0
20260906055911 22 289 6.4 12.9 0.05 0.00 0.00 48 1021.1
20260906055407 22 306 6.4 14.5 0.05 0.00 0.00 50 1021.3
20260906054902 22 316 8.0 9.7 0.00 0.00 0.00 49 1021.5
20260906054356 23 221 3.2 3.2 0.00 0.00 0.00 46 1021.1
20260906053853 23 59 0.0 1.6 0.00 0.00 0.00 41 1020.9
20260906053348 23 353 0.0 3.2 0.00 0.00 0.00 39 1020.9
20260906052844 23 345 1.6 6.4 0.00 0.00 0.00 38 1021.0
20260906052340 23 356 1.6 1.6 0.00 0.00 0.00 38 1021.0
20260906051837 23 260 0.0 3.2 0.00 0.00 0.00 39 1021.1
20260906051336 23 4 0.0 3.2 0.00 0.00 0.00 39 1021.2
20260906050832 23 166 0.0 1.6 0.00 0.00 0.00 39 1021.1
20260906050327 23 168 1.6 1.6 0.00 0.00 0.00 38 1021.2
20260906045826 23 62 0.0 0.0 0.00 0.00 0.00 38 1021.5
20260906045320 23 287 0.0 1.6 0.00 0.00 0.00 38 1021.2
20260906044816 23 63 0.0 1.6 0.00 0.00 0.00 36 1021.1
20260906044311 23 150 0.0 3.2 0.00 0.00 0.00 36 1021.2
20260906043807 23 249 1.6 3.2 0.00 0.00 0.00 36 1021.3
20260906043303 23 343 0.0 3.2 0.00 0.00 0.00 36 1021.3
20260906042803 23 217 0.0 1.6 0.00 0.00 0.00 37 1021.3
20260906042306 23 37 0.0 0.0 0.00 0.00 0.00 36 1021.2
20260906041757 23 173 0.0 1.6 0.00 0.00 0.00 35 1021.6
20260906041252 24 119 1.6 3.2 0.00 0.00 0.00 35 1021.3
20260906040748 24 50 0.0 6.4 0.00 0.00 0.00 34 1021.1
20260906040243 24 137 6.4 6.4 0.00 0.00 0.00 34 1021.2
20260906035738 24 115 3.2 8.0 0.00 0.00 0.00 34 1021.2
20260906035234 24 99 1.6 6.4 0.00 0.00 0.00 35 1021.1
20260906034734 24 138 3.2 8.0 0.00 0.00 0.00 35 1021.2
20260906034229 23 114 3.2 8.0 0.00 0.00 0.00 35 1021.0
20260906033725 24 127 3.2 6.4 0.00 0.00 0.00 34 1020.9
20260906033224 24 80 3.2 4.8 0.00 0.00 0.00 33 1020.7
20260906032721 25 76 0.0 6.4 0.00 0.00 0.00 32 1020.5
20260906032221 25 61 3.2 3.2 0.00 0.00 0.00 32 1020.3
20260906031716 25 85 1.6 6.4 0.00 0.00 0.00 32 1020.5
20260906031212 25 41 4.8 4.8 0.00 0.00 0.00 32 1020.3
20260906030711 25 70 3.2 8.0 0.00 0.00 0.00 31 1020.3
20260906030207 25 294 3.2 3.2 0.00 0.00 0.00 31 1020.2
20260906025706 25 264 0.0 3.2 0.00 0.00 0.00 30 1020.3
20260906025206 26 38 0.0 3.2 0.00 0.00 0.00 30 1019.9
20260906024659 26 54 4.8 9.7 0.00 0.00 0.00 29 1020.2
20260906024159 26 268 1.6 3.2 0.00 0.00 0.00 29 1019.9
20260906023655 26 296 0.0 4.8 0.00 0.00 0.00 28 1020.2
20260906023155 26 327 3.2 6.4 0.00 0.00 0.00 28 1019.8
20260906022650 27 44 1.6 4.8 0.00 0.00 0.00 28 1020.0
20260906022146 27 283 4.8 6.4 0.00 0.00 0.00 27 1019.8
20260906021641 27 258 0.0 4.8 0.00 0.00 0.00 27 1019.9
20260906021140 27 269 0.0 4.8 0.00 0.00 0.00 26 1019.7
20260906020635 27 121 0.0 6.4 0.00 0.00 0.00 27 1019.7
20260906020130 27 295 1.6 3.2 0.00 0.00 0.00 29 1019.6
20260906015630 27 89 0.0 1.6 0.00 0.00 0.00 29 1019.2
20260906015129 27 162 1.6 3.2 0.00 0.00 0.00 28 1019.4
20260906014629 28 157 1.6 3.2 0.00 0.00 0.00 28 1019.2
20260906014125 28 282 0.0 1.6 0.00 0.00 0.00 28 1019.0
20260906013620 28 322 0.0 0.0 0.00 0.00 0.00 27 1018.8
20260906013116 28 343 0.0 1.6 0.00 0.00 0.00 27 1018.8
20260906012611 28 154 0.0 0.0 0.00 0.00 0.00 27 1018.7
20260906012110 28 84 1.6 3.2 0.00 0.00 0.00 27 1018.8
20260906011607 29 224 0.0 3.2 0.00 0.00 0.00 26 1018.8
20260906011107 29 182 0.0 4.8 0.00 0.00 0.00 26 1018.8
20260906010602 30 65 3.2 6.4 0.00 0.00 0.00 26 1019.0
20260906010058 30 252 3.2 6.4 0.00 0.00 0.00 25 1018.7
20260906005557 30 82 0.0 6.4 0.00 0.00 0.00 25 1018.8
20260906005057 30 198 3.2 4.8 0.00 0.00 0.00 24 1018.8
20260906004556 30 133 6.4 8.0 0.00 0.00 0.00 24 1018.8
20260906004051 31 66 4.8 8.0 0.00 0.00 0.00 23 1019.0
20260906003546 31 118 1.6 4.8 0.00 0.00 0.00 21 1018.8
20260906003042 32 173 4.8 4.8 0.00 0.00 0.00 20 1019.0
20260906002537 32 150 1.6 3.2 0.00 0.00 0.00 20 1018.6
20260906002032 32 142 3.2 6.4 0.00 0.00 0.00 20 1018.8
20260906001527 33 133 6.4 6.4 0.00 0.00 0.00 19 1018.6
20260906001021 33 168 3.2 6.4 0.00 0.00 0.00 19 1018.8
20260906000517 34 87 3.2 3.2 0.00 0.00 0.00 19 1018.7
20260906000012 33 181 0.0 6.4 0.00 0.00 0.00 19 1018.6
20260905235505 33 265 0.0 11.3 0.00 0.00 0.00 19 1018.6
20260905235000 33 177 3.2 6.4 0.00 0.00 0.00 18 1018.8
20260905234456 33 253 1.6 4.8 0.00 0.00 0.00 19 1018.7
20260905233955 33 307 1.6 6.4 0.00 0.00 0.00 19 1018.8
20260905233452 34 298 6.4 8.0 0.00 0.00 0.00 18 1019.0
20260905232950 34 168 6.4 6.4 0.00 0.00 0.00 18 1018.7
20260905232447 34 147 4.8 8.0 0.00 0.00 0.00 18 1018.7
20260905231943 34 42 0.0 3.2 0.00 0.00 0.00 19 1018.6
20260905231438 34 26 1.6 6.4 0.00 0.00 0.00 18 1018.7
20260905230934 34 246 3.2 4.8 0.00 0.00 0.00 19 1018.5
20260905230432 34 162 0.0 3.2 0.00 0.00 0.00 18 1018.7
20260905225931 34 240 0.0 6.4 0.00 0.00 0.00 18 1018.6
20260905225426 35 284 4.8 6.4 0.00 0.00 0.00 17 1018.4
20260905224921 35 89 0.0 4.8 0.00 0.00 0.00 19 1018.6
20260905224417 35 146 0.0 4.8 0.00 0.00 0.00 18 1018.7
20260905223916 35 302 6.4 6.4 0.00 0.00 0.00 18 1018.5
20260905223415 35 150 3.2 6.4 0.00 0.00 0.00 18 1018.5
20260905222914 35 253 0.0 4.8 0.00 0.00 0.00 17 1018.6
20260905222414 34 56 0.0 4.8 0.00 0.00 0.00 18 1018.6
20260905221909 33 180 0.0 4.8 0.00 0.00 0.00 23 1018.7
20260905221406 32 170 3.2 6.4 0.00 0.00 0.00 21 1018.7
20260905220902 32 134 3.2 8.0 0.00 0.00 0.00 20 1018.4
20260905220358 32 321 0.0 3.2 0.00 0.00 0.00 20 1018.5
20260905215857 33 157 4.8 8.0 0.00 0.00 0.00 19 1018.8
20260905215353 33 195 3.2 8.0 0.00 0.00 0.00 18 1019.0
20260905214849 35 190 3.2 9.7 0.00 0.00 0.00 18 1019.0